Dewpoint
59 54 56 56 56 52 50 51 42 48 46 40 39 42 42 46 48 46 44 50 46 50 47 45 45 49 49 48 41 35 36 41 37 41 40 42 33 36 26 28 26 33 42 47 49 51 62 63 64 63 63 63 62 60 60 59 58 57 56 57 56 54 56 56 57 58 58 56 62 61 61 61 59 58 57 56 56 55 56 55 54 54 56 56 55 55 58 59 58 57 59 61 60 59 58 58 57
50 55 56 57 54 52 49 51 45 43 44 41 40 41 43 47 47 44 41 43 48 46 40 39 38 39 39 38 36 40 38 36 37 38 38 36 31 37 26 24 24 27 29 37 41 61 59 60 63 63 63 63 63 62 62 62 62 57 57 56 56 56 57 59 59 59 57 55 59 59 60 60 59 59 57 56 55 56 57 57 56 56 54 55 55 58 58 58 57 58 60 61 61 59 59 58 57
50 54 53 54 52 51 51 50 43 41 39 35 36 40 46 44 43 41 48 49 47 42 40 39 38 38 43 44 42 39 39 35 33 37 36 26 32 31 28 25 24 24 25 32 40 60 59 60 62 63 63 63 62 62 62 61 61 62 62 61 56 55 57 58 58 58 58 57 58 60 59 59 58 58 57 57 57 56 56 57 57 56 55 55 55 58 57 58 58 60 62 62 61 60 58 58 57
55 52 52 48 47 51 48 47 45 40 37 36 39 40 44 43 40 44 47 47 43 39 40 40 40 32 37 41 36 35 32 33 29 28 31 23 20 22 21 26 29 23 31 33 46 56 59 59 60 61 61 61 61 63 62 61 61 61 61 61 61 61 61 59 58 58 59 58 57 58 58 59 58 58 57 57 57 58 56 56 56 57 56 56 54 58 58 58 59 59 60 61 61 60 59 58 57
50 53 52 48 48 47 48 46 44 43 36 39 36 44 42 43 44 43 39 38 43 39 42 38 34 32 30 32 30 33 29 31 31 24 29 22 19 20 21 24 19 25 30 31 43 50 54 58 59 59 59 60 61 60 61 62 62 61 61 61 60 59 60 60 59 58 59 58 57 57 58 58 58 58 58 57 57 57 58 57 55 56 55 55 56 55 55 57 59 60 60 60 61 61 60 57 57
49 49 51 50 46 49 47 43 41 40 40 44 39 38 42 44 44 41 37 39 43 41 41 37 39 33 33 25 30 28 28 33 31 26 22 19 18 19 19 23 20 21 23 27 38 44 49 55 56 57 58 59 59 59 59 60 60 60 61 62 62 61 59 60 59 59 59 59 59 58 58 58 58 58 59 59 58 57 57 57 57 56 54 55 55 55 54 56 57 58 58 59 60 61 59 58 57
48 45 47 48 47 47 42 38 37 38 39 44 43 42 43 39 34 41 36 37 38 38 37 38 35 33 30 24 24 23 22 25 29 23 21 20 20 20 22 19 22 19 21 23 30 39 45 53 55 55 55 56 58 58 58 58 58 58 58 58 60 60 61 61 60 60 60 60 60 59 60 59 58 58 57 58 58 57 57 56 56 55 54 55 54 55 57 55 56 59 59 59 60 61 60 58 58
48 46 46 39 41 42 40 38 39 40 40 42 42 41 42 39 36 38 38 35 34 37 34 36 35 36 31 32 26 22 20 18 18 18 22 21 21 19 19 17 20 18 18 19 25 32 44 49 52 53 53 53 54 55 56 56 57 57 57 57 57 58 59 59 58 58 59 59 61 61 60 60 59 59 58 58 58 58 59 58 58 57 55 55 55 56 55 54 55 57 61 60 60 61 61 59 58
42 44 47 42 36 43 37 36 38 40 40 41 41 42 44 39 37 38 35 31 31 26 27 30 36 36 30 27 23 24 19 17 18 21 17 15 14 17 13 12 13 15 15 14 16 23 29 44 47 50 51 51 52 52 52 52 53 54 55 55 55 55 55 57 56 56 55 56 58 59 59 60 60 60 60 59 59 59 58 58 57 57 57 55 54 55 56 55 54 58 57 59 57 61 61 60 59
40 42 40 37 40 31 34 33 35 35 37 37 36 35 28 35 34 35 35 32 29 29 27 27 30 30 28 28 25 22 23 20 18 15 13 12 10 9 8 10 11 11 12 13 12 14 23 36 43 45 47 49 49 49 49 49 50 50 51 52 53 52 53 53 53 53 53 53 54 55 56 58 60 60 60 60 59 59 59 57 57 57 58 55 55 55 55 54 56 58 58 57 57 59 60 60 59
35 39 42 36 34 30 28 27 29 32 31 29 30 29 28 23 31 30 34 31 27 31 27 28 27 26 24 22 20 19 22 19 15 13 11 9 9 6 5 6 9 9 9 12 12 11 13 22 34 40 41 44 46 46 47 47 47 47 48 48 49 50 51 51 51 51 51 51 51 52 54 54 56 58 58 60 60 60 58 58 59 58 58 56 58 58 57 54 57 56 57 58 57 57 59 60 60
32 33 38 29 25 25 23 26 26 25 26 26 24 25 25 29 30 29 31 31 23 28 27 26 28 24 23 23 22 17 17 16 15 13 10 7 5 6 6 5 6 9 10 8 9 10 13 14 20 30 35 38 40 43 42 44 44 44 44 45 45 46 46 48 49 49 48 48 48 48 50 51 51 53 53 56 58 59 59 58 58 59 58 58 58 57 57 59 57 57 56 57 58 59 60 60 59
33 36 33 27 28 26 29 28 24 26 24 20 18 23 24 23 23 29 27 28 28 24 29 22 23 22 21 20 17 16 14 14 12 10 8 6 5 3 6 6 6 8 9 15 10 8 11 11 16 19 26 32 32 37 40 40 41 41 42 43 43 43 44 44 44 46 46 46 45 46 46 47 48 48 50 50 52 54 57 59 59 59 58 59 59 59 58 56 59 59 52 54 56 59 59 60 60
33 36 31 26 30 26 25 23 23 22 16 17 21 24 24 22 22 24 23 21 22 22 23 21 23 20 17 17 16 16 14 14 11 11 9 7 7 4 6 5 12 8 9 9 11 8 11 11 12 17 15 16 18 25 33 37 38 39 39 40 40 41 41 42 42 43 43 43 44 44 43 44 46 46 47 47 48 49 50 53 57 58 59 59 58 58 58 59 59 59 59 56 58 59 59 60 59
31 33 28 28 25 23 24 21 19 20 14 16 23 27 22 22 23 22 21 20 18 16 18 17 17 22 20 19 16 14 13 12 11 12 11 10 8 6 7 5 7 8 7 4 8 8 6 8 9 12 15 14 12 17 21 26 35 36 37 37 38 39 39 40 40 40 40 41 42 40 40 39 40 42 44 45 46 45 45 46 50 55 57 57 58 59 58 57 58 58 57 58 57 57 56 60 59
34 28 25 24 20 21 19 20 24 20 12 16 22 22 22 20 26 27 19 22 20 17 18 16 17 17 17 17 16 13 12 12 10 10 11 12 12 13 9 5 4 2 9 10 4 9 8 7 8 10 11 11 16 17 18 21 29 31 34 34 35 36 36 37 38 38 38 38 40 39 37 34 34 32 39 36 42 43 43 43 46 47 49 52 54 55 57 58 57 56 56 57 56 56 57 59 58
31 30 22 22 15 20 20 15 19 10 13 16 19 21 26 25 21 20 19 18 17 19 17 16 15 16 16 14 13 13 13 14 14 10 10 9 8 7 9 10 10 7 4 6 10 7 9 7 7 10 11 12 14 16 16 18 21 28 27 31 31 33 34 34 36 35 35 34 36 37 34 29 29 29 27 28 38 35 41 43 45 46 46 46 49 51 54 56 57 57 56 56 56 56 57 58 58
30 22 20 17 16 14 15 12 14 17 15 16 17 20 21 19 18 18 16 16 16 18 17 15 16 16 17 16 15 13 12 10 10 9 9 8 7 7 9 9 8 7 8 8 7 7 9 8 8 7 12 11 13 15 18 19 22 23 19 21 22 23 28 31 28 26 30 31 34 31 29 28 28 29 31 36 33 32 35 40 42 43 45 46 48 48 51 52 55 55 55 54 55 57 58 57 58
23 20 17 14 17 16 16 17 17 16 15 17 17 19 20 20 18 17 17 18 19 19 18 15 14 14 14 13 11 10 9 10 9 7 5 4 3 3 5 11 10 9 10 9 8 7 10 10 9 7 7 9 12 15 16 20 18 19 19 19 22 24 24 24 24 26 27 29 29 29 34 31 30 28 28 32 32 34 32 37 38 38 40 44 45 45 46 48 51 53 53 53 53 56 57 57 57
22 19 11 13 21 16 17 16 16 18 18 15 15 19 20 21 19 17 17 18 20 22 18 16 14 13 12 10 8 7 7 6 5 4 3 4 4 1 2 3 7 11 11 10 10 6 8 8 9 10 9 10 11 13 18 19 19 18 18 20 20 18 20 21 21 25 26 27 28 26 27 31 32 28 33 33 32 27 29 33 34 34 36 37 40 39 42 42 44 48 51 51 51 52 52 53 53
20 18 15 18 18 16 15 14 15 16 19 16 17 18 17 19 19 18 20 19 19 18 17 21 16 12 9 8 7 6 3 2 2 0 -1 -1 -2 -2 -2 1 5 8 9 9 9 5 4 5 8 11 10 11 12 12 14 17 19 19 19 18 21 17 20 19 19 21 25 27 28 27 29 28 30 29 30 29 28 26 27 26 25 25 29 32 35 32 34 37 37 39 42 47 48 50 50 51 54
23 19 17 16 19 15 14 14 18 18 18 17 17 16 17 20 20 21 19 19 18 21 23 20 14 10 8 6 3 1 0 0 1 2 2 2 -1 -3 -2 2 3 5 8 6 7 6 4 2 6 11 12 13 12 13 12 16 18 18 19 19 21 19 22 20 20 21 21 25 26 27 27 27 28 28 30 30 30 28 28 27 26 24 27 26 30 30 29 32 34 34 35 39 43 49 49 49 50
11 22 20 18 17 14 13 14 16 19 17 17 19 18 19 18 18 20 19 20 18 20 22 15 12 9 5 2 0 -1 -1 -1 0 2 2 4 3 3 -0 -1 1 3 6 5 7 6 5 0 4 9 12 12 12 13 14 15 17 19 20 20 21 20 20 20 20 21 23 23 25 26 27 26 27 27 28 29 28 26 27 27 27 25 26 24 25 26 31 29 28 30 33 36 38 42 47 49 50
20 16 21 21 18 12 13 14 16 18 18 17 19 21 16 18 16 19 15 15 19 20 14 15 11 8 4 1 -1 -1 -2 -2 -2 -2 -0 3 1 -0 1 1 -1 1 6 6 5 4 7 4 1 2 8 11 13 12 13 13 18 20 21 20 20 21 19 18 18 19 20 18 23 21 24 23 25 25 27 26 27 27 27 28 26 27 29 27 25 25 27 26 26 27 32 33 31 37 39 46 49
22 19 20 21 14 11 12 14 15 17 17 18 18 12 12 17 17 18 14 14 15 13 12 10 7 3 1 -0 0 1 0 -1 -1 1 -1 -2 1 3 1 0 0 3 1 3 4 3 3 6 2 4 7 8 9 10 12 14 17 20 20 19 19 23 20 18 18 19 17 17 17 20 22 21 21 24 25 24 25 27 27 27 26 26 27 27 29 29 29 26 25 25 27 30 31 34 36 41 44
26 23 16 15 6 10 8 9 14 14 13 15 13 4 14 17 16 14 14 13 11 10 6 2 -0 -1 -2 -2 -2 -2 -2 -1 1 3 2 2 2 -2 -0 -1 1 -1 -0 -0 3 3 1 0 5 3 4 8 8 12 14 15 17 19 21 20 20 22 20 21 20 17 18 18 18 20 20 20 19 20 21 23 24 25 25 26 25 25 24 25 26 28 29 30 27 25 26 27 27 30 31 35 41
27 20 20 9 6 8 4 7 12 13 11 12 7 4 10 16 14 14 14 12 11 8 2 -1 -2 -3 -3 -3 -2 -2 -3 -3 -3 -2 -0 2 0 -0 -1 -0 0 1 0 -0 1 2 4 1 5 5 5 13 10 11 16 14 17 18 21 19 21 21 22 21 19 18 19 19 20 23 21 21 19 20 20 22 22 23 24 25 24 24 23 23 24 26 27 30 29 29 29 26 25 28 28 30 35
19 9 22 21 4 8 2 -0 10 11 9 11 9 4 14 15 16 14 13 11 9 4 -0 -3 -4 -3 -3 -3 -3 -2 -3 -3 -2 -3 -2 -1 0 -0 1 1 1 2 3 2 3 2 -0 3 5 7 5 7 8 10 14 16 17 19 21 19 19 20 21 20 19 19 20 19 21 23 23 21 20 19 21 22 22 22 23 24 24 24 23 22 23 25 27 27 28 29 31 30 29 30 30 28 31
14 12 8 9 1 5 -0 -0 8 9 3 11 9 6 10 15 13 14 12 11 7 1 -1 -2 -3 -3 -3 -2 -2 -2 -2 -2 -2 -2 -2 -0 1 1 0 1 -0 1 3 2 3 3 0 5 6 3 5 4 5 6 8 11 15 15 15 17 16 18 16 16 17 19 20 20 20 21 22 22 20 20 20 21 23 20 22 24 24 24 23 23 24 26 28 28 25 27 28 29 26 26 27 33 33
20 11 12 7 7 3 -1 1 7 5 8 13 7 3 3 11 14 13 12 10 3 -1 -3 -3 -3 -3 -2 -2 -2 -3 -2 -1 -1 1 1 0 1 2 2 1 4 1 5 4 3 4 4 9 8 7 10 4 9 5 8 7 9 10 10 10 10 11 9 8 11 13 16 18 19 20 21 21 20 19 21 21 20 19 21 22 24 23 23 26 25 24 22 23 24 25 26 25 27 26 25 26 29
3 11 16 3 2 9 2 8 9 3 10 11 8 5 4 10 13 13 12 10 3 -1 -3 -3 -2 -2 -1 -1 -2 -3 -2 -1 -0 0 2 3 3 4 4 3 3 3 4 5 3 4 2 5 10 5 7 5 6 4 4 5 4 4 4 5 4 8 8 7 7 9 9 10 12 14 18 20 19 20 21 19 18 18 19 20 22 21 24 26 24 24 24 23 23 25 24 24 25 25 26 27 25
9 10 7 5 3 3 1 10 8 3 6 9 10 5 2 8 10 13 12 11 3 -1 -3 -3 -2 -2 -2 -2 -3 -2 -1 1 2 2 3 5 5 5 6 6 5 5 3 4 4 3 1 3 8 6 4 4 3 6 4 4 0 -2 2 6 3 8 4 6 7 10 10 9 9 12 16 19 19 19 20 20 18 17 17 20 19 22 25 24 24 24 24 23 23 25 25 26 25 25 25 26 27
9 5 9 8 2 2 4 7 10 13 9 6 8 5 5 9 10 12 13 11 3 -2 -3 -2 -3 -2 -3 -2 -1 -1 1 2 4 4 4 6 7 7 7 8 7 5 4 4 3 2 2 1 7 7 3 2 1 0 2 7 2 -2 -2 -1 2 6 5 7 6 7 10 11 12 13 16 19 20 20 20 20 17 16 16 20 20 22 23 23 24 24 23 24 22 26 24 24 26 24 25 25 25
4 5 4 3 3 2 0 2 9 14 12 6 7 8 8 9 9 11 12 11 2 -2 -3 -3 -2 -2 -2 -1 -2 -1 1 4 4 5 6 6 8 8 7 11 9 6 5 4 3 2 2 3 6 8 8 5 1 1 2 2 0 -2 1 3 6 1 3 5 6 7 7 8 11 15 19 19 19 19 19 19 17 16 17 19 20 21 22 21 22 23 23 23 24 24 22 24 24 25 23 24 25
-0 2 7 1 1 3 3 2 6 9 17 11 7 6 11 9 9 10 12 9 1 -2 -3 -3 -3 -2 -2 -1 -1 1 3 4 5 5 6 8 8 9 9 9 8 8 6 3 2 2 2 1 5 6 7 1 1 2 2 5 3 1 -0 0 0 1 6 6 6 5 5 4 5 11 12 12 12 13 15 16 15 13 14 17 19 21 22 20 20 21 22 23 24 23 25 24 25 25 24 25 24
5 4 2 2 2 1 2 4 7 16 10 10 6 8 8 9 8 9 9 6 1 -2 -3 -2 -3 -2 -1 -0 2 3 4 4 7 9 8 8 10 9 9 9 9 8 6 3 5 3 2 3 1 4 3 -1 1 -0 3 4 4 4 3 3 2 3 1 6 6 4 4 2 5 5 6 7 9 10 13 14 15 14 15 17 18 20 20 19 20 21 21 20 23 25 25 25 24 24 25 24 25
7 7 5 2 2 3 3 5 8 18 12 5 9 12 8 9 8 8 7 5 1 -2 -3 -2 -1 -1 1 2 3 5 5 5 9 9 9 9 11 10 11 10 9 8 7 6 4 3 2 -0 2 1 0 -0 1 1 -0 3 5 4 4 0 1 -0 3 4 1 1 3 3 6 6 8 8 12 14 14 15 15 16 16 18 18 17 18 17 18 19 21 22 23 23 23 24 25 24 22 22 25
7 3 5 5 4 2 4 4 5 13 12 7 9 7 10 8 7 7 5 3 -0 -2 -1 -1 -1 -1 2 6 7 6 7 10 8 10 11 12 12 15 13 12 13 8 7 5 5 4 3 1 1 -1 -1 -2 -1 -1 1 -0 4 4 3 3 0 2 2 2 2 1 3 3 4 6 8 9 10 10 9 9 12 18 17 16 16 16 16 16 17 17 19 22 22 22 23 21 22 22 22 22 24
4 2 4 7 3 4 7 8 8 9 13 7 8 4 8 6 5 5 3 1 1 -0 -1 -1 -1 2 5 7 8 9 8 10 11 11 12 12 13 13 12 11 10 8 6 6 3 -0 -1 2 2 1 3 3 1 1 3 2 1 4 1 1 1 2 2 2 0 5 4 3 3 6 6 7 6 7 8 10 13 16 17 17 15 15 13 16 15 15 16 17 19 21 22 21 20 21 21 24 25
1 2 4 4 3 4 3 6 7 7 10 6 7 6 6 4 4 3 2 0 1 2 2 3 6 6 6 7 8 10 9 10 10 10 9 8 9 9 9 7 6 7 5 -1 -2 -1 -3 -0 -1 2 3 3 4 5 7 5 5 5 6 6 6 4 3 7 3 2 3 1 2 2 4 4 5 5 7 7 7 7 9 14 15 15 14 15 15 14 14 14 16 18 20 21 22 20 21 22 25
5 3 3 4 2 2 3 3 6 11 13 12 6 3 5 4 2 0 0 0 -1 0 -0 3 6 10 9 10 10 10 10 10 10 8 7 6 5 6 2 -2 -1 -0 1 -0 -1 -3 -4 -2 0 2 2 2 4 6 4 5 6 6 5 7 7 7 6 4 2 1 1 3 4 3 2 3 5 5 5 6 6 7 6 6 13 15 14 13 14 14 13 14 15 16 17 19 19 19 19 21 23
3 4 3 2 3 3 5 5 3 1 -2 8 4 -4 -7 5 2 -0 -1 -1 -1 -0 3 4 8 8 8 8 8 8 9 8 8 6 4 4 1 -3 -3 -0 1 0 -2 -2 -3 -2 -1 0 0 1 3 3 4 7 6 5 5 4 4 4 4 6 5 3 3 2 2 -0 -0 -0 2 1 3 3 4 5 4 6 5 4 3 14 15 14 14 12 13 14 14 15 16 16 17 19 19 19 20
4 3 5 5 6 5 3 3 4 1 1 5 5 -4 -3 -6 2 -0 -1 -1 -0 3 4 5 10 8 6 7 7 6 5 5 6 4 1 -0 -3 -3 1 1 0 -2 -3 0 1 3 4 4 4 4 4 5 5 6 8 7 5 3 3 5 7 6 5 5 1 2 1 -0 3 0 2 1 1 -1 -0 2 4 3 4 5 4 7 13 12 11 10 11 12 14 15 17 17 17 19 19 18 19
2 5 4 8 5 2 2 3 3 -0 2 6 1 -1 -5 -7 1 2 1 -0 1 2 5 5 7 7 6 5 5 4 3 1 0 -2 -3 -4 -3 2 0 -0 -2 1 5 5 6 5 5 4 6 6 6 6 6 7 6 6 7 7 8 6 7 6 4 3 2 2 2 4 1 -1 -2 -2 -2 -3 -1 1 3 5 9 9 8 6 9 8 10 8 9 10 14 16 17 18 17 17 18 17 19
5 6 6 6 4 4 4 5 2 -0 1 -2 -5 -1 -5 -4 1 3 2 -0 1 4 7 9 7 5 5 5 5 5 2 0 -2 -3 -6 -4 2 1 -1 0 2 5 6 6 5 4 4 5 7 7 6 6 6 6 7 8 9 8 7 6 5 6 5 6 5 5 3 2 -2 -3 -3 -4 -6 -4 -2 -0 7 12 14 14 13 10 9 10 10 11 11 12 13 14 15 16 16 15 14 15 16
8 8 9 8 6 2 3 1 1 3 0 -1 -5 -6 -5 -5 0 3 4 4 3 5 7 7 6 5 4 5 3 1 -1 -3 -4 -7 -6 2 1 -2 0 4 5 4 5 6 4 4 4 6 8 8 7 7 8 9 9 8 8 7 6 6 6 5 5 3 2 1 -0 -0 -2 -2 -4 -5 -3 -3 -2 -0 1 1 8 13 11 10 9 8 11 10 12 12 14 16 16 15 15 15 14 14 15
11 13 6 3 0 -1 1 -1 3 3 -3 -3 -7 -7 -6 -4 1 3 4 4 7 6 6 6 6 4 4 2 1 1 -4 -3 -5 -4 1 -0 -3 -1 3 5 4 3 4 3 5 6 7 8 9 8 8 8 7 8 8 7 7 6 6 6 5 4 3 2 1 0 -1 -2 -3 -3 -2 -0 1 1 1 -0 -1 1 3 11 12 12 11 11 10 11 11 11 12 14 14 16 16 15 13 13 13
10 1 -0 1 -1 -0 -1 -1 2 -2 -3 -5 -5 -7 -4 -7 -7 3 5 8 9 9 9 7 5 1 3 3 -0 -4 -6 -8 -6 1 -1 -4 -3 2 3 2 2 3 2 4 6 8 8 7 5 3 3 3 2 3 3 3 3 4 4 3 0 -2 -2 -1 -1 -1 -1 -0 -0 0 1 1 1 2 1 0 0 -1 1 5 10 9 9 9 7 8 9 10 11 13 13 13 13 13 13 13 12
5 2 1 1 0 1 -1 -1 -2 -3 -3 -4 -4 -5 -5 -9 -0 3 5 5 8 10 9 6 5 1 1 -4 -6 -10 -7 -7 -1 -2 -4 -6 -0 2 -0 -0 2 0 3 2 5 6 5 4 1 0 1 -0 -2 -3 -4 -4 -2 -3 -4 -5 -5 -3 -1 -0 1 1 2 1 1 1 0 -0 -1 0 -1 -1 2 6 6 6 6 6 6 6 7 7 8 9 11 12 12 13 13 13 12 12 11
2 0 2 1 -1 -1 -1 -3 -1 -1 -3 -3 -4 -5 -9 -7 -5 4 3 4 7 11 11 6 3 2 0 -5 -8 -8 -6 -4 -2 -5 -9 -4 3 1 -1 -2 -3 -1 3 3 3 2 -1 -1 -2 0 0 -1 -3 -3 -4 -2 -2 -2 -2 -2 -1 0 1 2 1 0 -0 -1 0 -1 -2 -1 0 -1 -0 0 0 1 2 3 2 2 2 4 5 5 5 5 7 8 10 11 12 11 11 12 11
1 2 -0 2 1 -1 -1 -2 -3 -1 -2 -5 -5 -1 -2 -4 -0 4 3 5 8 12 15 5 3 1 -2 -6 -7 -9 -7 -5 -8 -13 -9 3 2 -1 -4 -7 -5 3 2 -2 -4 -5 -5 -6 -1 0 -2 -4 -6 -5 -3 -2 -1 0 0 1 -0 -2 -3 -2 -2 1 -2 -2 -3 -1 -1 -1 -1 -1 -1 -1 0 -0 -0 -0 2 3 4 4 7 5 6 5 5 7 9 9 8 8 9 9 9
2 2 1 3 2 1 0 1 1 2 -2 -3 -0 -2 -2 -3 2 4 4 5 7 10 3 3 -0 -2 -4 -9 -10 -10 -6 -10 -12 -6 1 1 -3 -5 -7 -6 1 1 -3 -4 -5 -4 -2 -1 0 -2 -4 -6 -6 -3 -2 -1 1 -0 -1 -3 -3 -3 -2 -2 -0 -0 -3 -3 -3 -2 -1 -0 -0 -1 -2 -2 -3 -2 -1 1 2 3 4 4 4 6 8 8 9 8 8 7 7 11 8 10 10
1 1 3 1 2 0 3 -1 -2 -3 -2 -5 -0 -5 -5 -4 -0 2 2 6 3 3 -0 -1 -4 -4 -11 -13 -12 -12 -13 -14 -7 0 1 -2 -5 -7 -6 -0 0 -3 -5 -5 -4 -2 0 -1 -3 -5 -7 -7 -5 -3 -0 1 -0 -3 -3 -5 -6 -5 -5 -3 -3 -2 -4 -3 -3 -4 -5 -4 -3 -3 -2 -3 -4 -1 0 1 -0 1 2 3 2 3 5 7 9 8 6 6 5 6 7 9 11
5 5 0 4 3 0 4 -2 -0 -2 -4 -5 -4 -1 -1 -7 -5 2 1 1 -1 -1 -1 -5 -10 -12 -14 -19 -18 -19 -14 -10 -3 -1 -4 -6 -8 -7 -1 -1 -4 -6 -7 -4 -5 -6 -2 -0 -4 -7 -7 -6 -4 -1 -1 -2 -4 -6 -7 -7 -6 -5 -5 -5 -4 -4 -4 -4 -5 -5 -5 -5 -5 -6 -5 -4 -3 -4 -2 1 -2 -2 -2 -2 -1 0 2 3 7 6 8 9 9 11 12 15 17
3 2 6 3 -0 -0 -1 -0 -3 -4 -4 -4 -4 -3 -1 -4 -1 -1 -0 0 -2 -3 -4 -7 -7 -13 -19 -17 -17 -13 -13 -7 -4 -5 -7 -8 -7 -5 -1 -2 -5 -7 -5 -3 -6 -8 -6 -2 -4 -7 -7 -5 -4 -4 -6 -8 -9 -11 -10 -6 -5 -5 -5 -6 -5 -5 -5 -6 -6 -6 -6 -6 -5 -5 -5 -7 -7 -7 -6 -6 -5 -6 -3 -7 -5 -4 -1 -0 2 1 1 2 5 7 8 10 10
6 6 2 3 -0 1 -1 -1 1 -1 -4 -2 -3 1 -5 -5 -1 -0 1 2 -4 -4 -5 -8 -18 -16 -16 -17 -15 -17 -9 -6 -6 -8 -9 -8 -6 -4 -1 -4 -6 -6 -6 -7 -8 -8 -8 -6 -7 -7 -5 -6 -8 -10 -11 -12 -10 -9 -7 -6 -5 -6 -5 -6 -6 -7 -7 -7 -7 -7 -7 -6 -6 -5 -6 -6 -7 -7 -7 -7 -8 -8 -8 -1 -5 -6 -6 -5 -1 -2 -1 -1 -1 2 4 5 6
6 5 5 3 4 2 4 4 0 -1 -1 -3 -3 -6 -4 -4 -1 -2 2 -3 -4 -6 -7 -12 -10 -15 -18 -18 -16 -12 -7 -8 -8 -8 -8 -7 -6 -4 -4 -6 -6 -8 -8 -8 -10 -10 -9 -10 -10 -8 -9 -10 -11 -10 -11 -11 -9 -8 -6 -7 -7 -7 -7 -7 -7 -7 -6 -6 -6 -3 -6 -5 -4 -4 -5 -6 -7 -7 -7 -7 -7 -6 -6 -6 -6 -5 -5 -5 -4 -2 -1 -1 -0 0 0 2 2
3 7 4 2 2 1 -0 -1 8 3 0 -1 -2 -5 -1 0 -1 -2 -3 -4 -5 -3 -5 -10 -18 -19 -16 -18 -18 -10 -8 -9 -8 -9 -8 -8 -8 -8 -5 -6 -9 -10 -10 -11 -11 -11 -12 -12 -10 -9 -11 -13 -12 -10 -10 -9 -9 -8 -8 -8 -8 -7 -7 -7 -7 -6 -5 -5 -4 -4 -4 -4 -4 -4 -3 -4 -5 -5 -5 -6 -6 -5 -5 -5 -2 -1 -1 -1 -1 -1 -0 1 2 3 2 2 4